FW5335 Weather Reports


Display with metric or nautical units.
time (UTC)temp
F
wind
direction
speed
MPH
gust
MPH
rain 1hr
in
rain 24hr
in
rain mn
in
humidity
%
barometer
mb
20260906110517 77 180 8.0 14.0 0.00 0.00 0.00 44 1021.3
20260906104519 76 180 6.0 12.0 0.00 0.00 0.00 50 1021.5
20260906103517 75 203 5.0 9.0 0.00 0.00 0.00 58 1021.4
20260906102540 73 203 8.0 12.0 0.00 0.00 0.00 61 1021.8
20260906101521 74 158 7.0 15.0 0.00 0.00 0.00 60 1021.9
20260906100519 74 180 7.0 14.0 0.00 0.00 0.00 62 1022.1
20260906095518 73 203 8.0 13.0 0.00 0.00 0.00 62 1022.1
20260906094518 74 203 7.0 16.0 0.00 0.00 0.00 62 1022.0
20260906093518 73 180 8.0 14.0 0.00 0.00 0.00 63 1022.1
20260906092517 72 180 7.0 15.0 0.00 0.00 0.00 64 1022.3
20260906091559 72 203 7.0 15.0 0.00 0.00 0.00 63 1022.3
20260906090558 72 203 5.0 10.0 0.00 0.00 0.00 65 1022.4
20260906085538 72 203 6.0 12.0 0.00 0.00 0.00 66 1022.5
20260906084516 71 135 4.0 8.0 0.00 0.00 0.00 69 1022.6
20260906083516 69 180 5.0 8.0 0.00 0.00 0.00 71 1022.2
20260906082522 69 203 6.0 11.0 0.00 0.00 0.00 73 1022.1
20260906081600 67 180 6.0 12.0 0.00 0.00 0.00 75 1021.8
20260906080520 67 180 6.0 16.0 0.00 0.00 0.00 75 1021.8
20260906075520 66 158 3.0 5.0 0.00 0.00 0.00 78 1022.0
20260906074519 65 135 4.0 9.0 0.00 0.00 0.00 79 1021.8
20260906073520 63 158 5.0 11.0 0.00 0.00 0.00 82 1022.0
20260906072519 61 113 5.0 10.0 0.00 0.00 0.00 85 1021.9
20260906071520 59 90 2.0 4.0 0.00 0.00 0.00 89 1022.0
20260906070519 58 90 1.0 3.0 0.00 0.00 0.00 90 1022.1
20260906065520 57 68 2.0 4.0 0.00 0.00 0.00 91 1021.9
20260906064518 56 90 1.0 3.0 0.00 0.00 0.00 91 1022.1
20260906063518 56 68 1.0 3.0 0.00 0.00 0.00 90 1021.9
20260906062520 56 0.0 2.0 0.00 0.00 0.00 90 1021.9
20260906061521 55 68 1.0 3.0 0.00 0.00 0.00 90 1022.1
20260906060520 55 68 2.0 3.0 0.00 0.00 0.00 89 1022.1
20260906055519 55 68 2.0 4.0 0.00 0.00 0.00 89 1022.3
20260906054520 55 68 1.0 2.0 0.00 0.00 0.00 89 1022.4
20260906053519 56 68 1.0 3.0 0.00 0.00 0.00 89 1022.2
20260906052521 56 68 2.0 4.0 0.00 0.00 0.00 89 1022.3
20260906051518 56 68 3.0 4.0 0.00 0.00 0.00 88 1022.7
20260906050519 56 68 2.0 3.0 0.00 0.00 0.00 88 1022.7
20260906045518 56 68 2.0 3.0 0.00 0.00 0.00 88 1022.7
20260906044521 56 68 3.0 4.0 0.00 0.00 0.00 87 1022.6
20260906043519 56 90 2.0 3.0 0.00 0.00 0.00 87 1023.0
20260906042540 56 90 1.0 2.0 0.00 0.00 0.00 87 1023.0
20260906041539 57 90 2.0 3.0 0.00 0.00 0.00 87 1023.2
20260906040538 57 0.0 1.0 0.00 0.00 0.00 87 1023.4
20260906035519 57 0.0 2.0 0.00 0.00 0.00 87 1023.5
20260906034522 57 0.0 0.0 0.00 0.00 0.00 87 1023.7
20260906033519 57 0.0 1.0 0.00 0.00 0.00 87 1023.8
20260906032521 57 0.0 0.0 0.00 0.00 0.00 87 1024.0
20260906031521 57 90 1.0 2.0 0.00 0.00 0.00 87 1024.3
20260906030520 57 0.0 0.0 0.00 0.00 0.00 87 1024.3
20260906025517 57 0.0 0.0 0.00 0.00 0.00 86 1024.4
20260906024540 57 0.0 0.0 0.00 0.00 0.00 86 1024.4
20260906023518 57 0.0 0.0 0.00 0.00 0.00 86 1024.5
20260906022519 58 0.0 0.0 0.00 0.00 0.00 86 1024.7
20260906021520 58 0.0 0.0 0.00 0.00 0.00 86 1024.7
20260906020523 58 0.0 0.0 0.00 0.00 0.00 85 1024.9
20260906015519 58 0.0 0.0 0.00 0.00 0.00 85 1024.7
20260906014539 58 0.0 2.0 0.00 0.00 0.00 85 1024.9
20260906013518 58 0.0 0.0 0.00 0.00 0.00 84 1025.1
20260906012537 58 0.0 0.0 0.00 0.00 0.00 84 1024.8
20260906011518 58 0.0 0.0 0.00 0.00 0.00 84 1024.9
20260906010519 58 0.0 0.0 0.00 0.00 0.00 84 1024.8
20260906005518 58 0.0 0.0 0.00 0.00 0.00 84 1025.2
20260906004520 58 68 1.0 2.0 0.00 0.00 0.00 84 1025.3
20260906003519 57 0.0 2.0 0.00 0.00 0.00 83 1025.5
20260906002517 57 158 1.0 3.0 0.00 0.00 0.00 83 1025.4
20260906001519 57 158 1.0 2.0 0.00 0.00 0.00 83 1025.6
20260906000540 57 0.0 2.0 0.00 0.00 0.00 83 1025.7
20260905235519 57 158 2.0 3.0 0.00 0.00 0.00 83 1025.9
20260905234542 57 158 1.0 3.0 0.00 0.00 0.00 83 1026.0
20260905233518 57 0.0 0.0 0.00 0.00 0.00 83 1026.0
20260905232518 57 0.0 0.0 0.00 0.00 0.00 83 1026.0
20260905231517 57 0.0 0.0 0.00 0.00 0.00 83 1026.2
20260905230521 57 0.0 0.0 0.00 0.00 0.00 83 1026.2
20260905225520 57 0.0 0.0 0.00 0.00 0.00 82 1026.2
20260905224525 57 0.0 0.0 0.00 0.00 0.00 82 1026.3
20260905223520 57 0.0 0.0 0.00 0.00 0.00 82 1026.0
20260905222519 57 0.0 0.0 0.00 0.00 0.00 81 1026.2
20260905221521 57 0.0 0.0 0.00 0.00 0.00 81 1026.1
20260905220523 57 0.0 0.0 0.00 0.00 0.00 81 1025.9
20260905215541 57 0.0 0.0 0.00 0.00 0.00 81 1026.1
20260905214522 57 0.0 0.0 0.00 0.00 0.00 80 1026.0
20260905213542 57 0.0 0.0 0.00 0.00 0.00 80 1026.1
20260905212517 58 0.0 0.0 0.00 0.00 0.00 80 1026.2
20260905211518 58 0.0 0.0 0.00 0.00 0.00 79 1026.2
20260905210520 58 0.0 0.0 0.00 0.00 0.00 79 1026.3
20260905205518 58 0.0 2.0 0.00 0.00 0.00 78 1026.3
20260905204524 58 113 1.0 2.0 0.00 0.00 0.00 77 1026.2
20260905203517 59 113 1.0 3.0 0.00 0.00 0.00 77 1026.2
20260905202518 59 0.0 1.0 0.00 0.00 0.00 77 1026.0
20260905201519 59 45 3.0 4.0 0.00 0.00 0.00 75 1025.9
20260905200520 60 0.0 0.0 0.00 0.00 0.00 74 1026.1
20260905195520 60 0.0 0.0 0.00 0.00 0.00 73 1026.1
20260905194520 61 45 1.0 2.0 0.00 0.00 0.00 72 1026.2
20260905193522 61 0.0 1.0 0.00 0.00 0.00 71 1026.2
20260905192517 62 0.0 1.0 0.00 0.00 0.00 71 1026.3
20260905191519 62 0.0 0.0 0.00 0.00 0.00 70 1026.3
20260905190520 63 0.0 1.0 0.00 0.00 0.00 69 1026.1
20260905185517 63 45 1.0 3.0 0.00 0.00 0.00 68 1026.0
20260905184522 63 0 2.0 4.0 0.00 0.00 0.00 68 1025.9
20260905183521 63 45 3.0 5.0 0.00 0.00 0.00 67 1026.0
20260905182540 64 23 3.0 5.0 0.00 0.00 0.00 66 1026.1
20260905181522 64 45 4.0 8.0 0.00 0.00 0.00 65 1025.9
20260905180520 65 45 2.0 4.0 0.00 0.00 0.00 64 1026.0
20260905175517 65 68 3.0 6.0 0.00 0.00 0.00 64 1025.9
20260905174610 66 23 3.0 8.0 0.00 0.00 0.00 62 1025.9
20260905173521 67 68 4.0 8.0 0.00 0.00 0.00 61 1026.0
20260905172518 67 68 3.0 8.0 0.00 0.00 0.00 60 1026.0
20260905171540 68 68 4.0 9.0 0.00 0.00 0.00 59 1025.9
20260905170520 69 68 6.0 10.0 0.00 0.00 0.00 58 1025.7
20260905165517 69 45 3.0 8.0 0.00 0.00 0.00 57 1025.8
20260905164540 69 23 3.0 7.0 0.00 0.00 0.00 57 1025.5
20260905163518 70 0 4.0 9.0 0.00 0.00 0.00 56 1025.5
20260905162521 71 23 5.0 10.0 0.00 0.00 0.00 54 1025.6
20260905161522 72 338 3.0 7.0 0.00 0.00 0.00 52 1025.4
20260905160522 73 45 4.0 9.0 0.00 0.00 0.00 51 1025.4
20260905155518 73 225 2.0 6.0 0.00 0.00 0.00 49 1025.4
20260905154519 73 315 4.0 9.0 0.00 0.00 0.00 50 1025.3
20260905153522 74 248 3.0 9.0 0.00 0.00 0.00 48 1025.7
20260905152521 75 0 4.0 8.0 0.00 0.00 0.00 47 1025.7
20260905151521 75 23 3.0 5.0 0.00 0.00 0.00 49 1025.9
20260905150519 76 225 2.0 5.0 0.00 0.00 0.00 45 1025.8
20260905145537 76 225 4.0 12.0 0.00 0.00 0.00 47 1025.9
20260905144519 75 248 2.0 7.0 0.00 0.00 0.00 48 1025.9
20260905143527 75 225 3.0 7.0 0.00 0.00 0.00 45 1026.0
20260905142518 75 248 4.0 9.0 0.00 0.00 0.00 45 1026.1
20260905141518 75 270 4.0 8.0 0.00 0.00 0.00 45 1026.2
20260905140518 75 225 7.0 12.0 0.00 0.00 0.00 45 1026.2
20260905135516 75 248 4.0 12.0 0.00 0.00 0.00 44 1026.6
20260905134521 75 248 6.0 11.0 0.00 0.00 0.00 45 1026.5
20260905133522 75 293 4.0 11.0 0.00 0.00 0.00 52 1026.6
20260905131541 74 270 6.0 11.0 0.00 0.00 0.00 49 1026.3
20260905130519 74 45 3.0 7.0 0.00 0.00 0.00 53 1026.1
20260905125520 72 90 3.0 5.0 0.00 0.00 0.00 56 1026.2
20260905124518 71 0 3.0 7.0 0.00 0.00 0.00 53 1026.2
20260905123537 72 0 4.0 8.0 0.00 0.00 0.00 54 1026.2
20260905122517 71 0 5.0 13.0 0.00 0.00 0.00 53 1026.2
20260905121518 70 225 4.0 8.0 0.00 0.00 0.00 54 1026.0
20260905120518 68 338 3.0 8.0 0.00 0.00 0.00 55 1026.3
20260905115518 69 293 2.0 5.0 0.00 0.00 0.00 57 1026.3
20260905114517 69 23 2.0 4.0 0.00 0.00 0.00 58 1026.4
20260905113517 69 23 2.0 5.0 0.00 0.00 0.00 59 1026.6
20260905112537 69 293 3.0 8.0 0.00 0.00 0.00 59 1026.3
20260905111537 69 338 4.0 10.0 0.00 0.00 0.00 57 1026.2